Location: Newark
(39.5667°N, 8.9833°E)
Time: 20:45:30
(UTC+00:00)

Transit 2A - Pass Details

Date: 30 October 2019
Orbit: 601 x 957 km, 66.7° (Epoch: 21 November)

Event Time Altitude Azimuth Distance (km) Brightness Sun altitude
Rises 16:19:46 0° 216° (SW) 3,351 10.3 0.2°
Reaches altitude 10° 16:22:21 10° 220° (SW) 2,364 9.6 -0.3°
Maximum altitude 16:27:41 62° 300° (WNW) 834 6.5 -1.3°
Drops below altitude 10° 16:32:31 10° 22° (NNE) 2,147 8.0 -2.2°
Sets 16:34:46 0° 26° (NNE) 3,018 8.7 -2.6°
